Brunswick, NC

2:19 PM EDT on July 27, 2016 (GMT -0400)
Columbus County Municipal

Weather History for KCPC - January, 2013

Change the Weather History Date:

Sunday, January 20, 2013

  Actual Average (KLBT) Record (KLBT)
Temperature  
Mean Temperature 52 °F 43 °F  
Max Temperature 64 °F 54 °F 69 °F (1999)
Min Temperature 40 °F 33 °F 22 °F (2016)
Degree Days  
Heating Degree Days 13 22  
Month to date heating degree days 439  
Since 1 July heating degree days 1489  
Cooling Degree Days 0 0  
Month to date cooling degree days 0  
Year to date cooling degree days 0  
Growing Degree Days 2 (Base 50)    
Moisture  
Dew Point 37 °F    
Average Humidity 68    
Maximum Humidity 97    
Minimum Humidity 25    
Precipitation  
Precipitation 0.00 in 0.09 in 0.45 in (2001)
Month to date precipitation 1.73  
Year to date precipitation 1.73  
Sea Level Pressure  
Sea Level Pressure 30.10 in    
Wind  
Wind Speed 3 mph (SW)    
Max Wind Speed 9 mph    
Max Gust Speed -    
Visibility 10 miles    
Events      
T = Trace of Precipitation, MM = Missing Value Source: NWS Daily Summary

Daily Weather History Graph

Daily Weather History Graph

Search for Another Location

Airport or City:

Trip Planner

Search our weather history database for the weather conditions in past years. The results will help you decide how hot, cold, wet, or windy it might be!

Date:

Astronomy

Jan. 20, 2013 Rise Set
Actual Time 7:19 AM EST 5:33 PM EST
Civil Twilight 6:52 AM EST 6:00 PM EST
Nautical Twilight 6:21 AM EST 6:30 PM EST
Astronomical Twilight 5:51 AM EST 7:00 PM EST
Moon 12:32 PM EST (1/20) 1:51 AM EST (1/20)
Length of Visible Light 11h 08m
Length of Day
10h 14m
Waxing Gibbous, 66% of the Moon is Illuminated
Jan 20
Waxing Gibbous
Jan 26
Full
Feb 3
Last Quarter
Feb 10
New
Feb 17
First Quarter

Hourly Weather History & Observations

Time (EST) Temp. Windchill Dew Point Humidity Pressure Visibility Wind Dir Wind Speed Gust Speed Precip Events Conditions
12:15 AM 41.9 °F 40.0 °F 40.6 °F 95% 30.20 in 10.0 mi SSW 3.5 mph - N/A   Clear
12:35 AM 42.4 °F 40.7 °F 41.0 °F 95% 30.19 in 10.0 mi SSW 3.5 mph - N/A   Clear
12:55 AM 44.6 °F 42.2 °F 42.8 °F 93% 30.18 in 10.0 mi SSW 4.6 mph - N/A   Clear
1:15 AM 44.8 °F 42.4 °F 43.2 °F 94% 30.17 in 10.0 mi SSW 4.6 mph - N/A   Clear
1:35 AM 44.8 °F 43.3 °F 43.0 °F 93% 30.18 in 10.0 mi SW 3.5 mph - N/A   Clear
1:55 AM 43.7 °F 41.1 °F 42.3 °F 95% 30.16 in 10.0 mi South 4.6 mph - N/A   Clear
2:15 AM 44.6 °F 42.2 °F 42.8 °F 93% 30.16 in 10.0 mi SW 4.6 mph - N/A   Clear
2:35 AM 43.9 °F - 42.1 °F 93% 30.16 in 10.0 mi Calm Calm - N/A   Clear
2:55 AM 43.2 °F - 41.2 °F 93% 30.16 in 10.0 mi Calm Calm - N/A   Clear
3:15 AM 43.2 °F 41.5 °F 41.9 °F 95% 30.16 in 10.0 mi SSW 3.5 mph - N/A   Clear
3:35 AM 42.8 °F 41.1 °F 41.5 °F 95% 30.16 in 10.0 mi SW 3.5 mph - N/A   Clear
3:55 AM 41.5 °F - 40.5 °F 96% 30.15 in 10.0 mi Calm Calm - N/A   Clear
4:15 AM 42.4 °F - 41.5 °F 97% 30.16 in 10.0 mi Calm Calm - N/A   Clear
4:35 AM 42.4 °F - 41.0 °F 95% 30.15 in 10.0 mi Calm Calm - N/A   Clear
4:55 AM 43.0 °F - 41.4 °F 94% 30.15 in 10.0 mi Calm Calm - N/A   Clear
5:15 AM 42.6 °F 40.9 °F 41.0 °F 94% 30.15 in 10.0 mi SW 3.5 mph - N/A   Clear
5:35 AM 41.9 °F - 40.6 °F 95% 30.14 in 10.0 mi Calm Calm - N/A   Clear
5:55 AM 42.8 °F - 41.2 °F 94% 30.14 in 10.0 mi Calm Calm - N/A   Clear
6:15 AM 42.4 °F 40.7 °F 41.0 °F 95% 30.14 in 10.0 mi SW 3.5 mph - N/A   Clear
6:35 AM 41.5 °F - 40.5 °F 96% 30.15 in 10.0 mi Calm Calm - N/A   Clear
6:55 AM 42.8 °F 40.1 °F 41.2 °F 94% 30.15 in 10.0 mi SW 4.6 mph - N/A   Clear
7:15 AM 42.6 °F 39.9 °F 41.0 °F 94% 30.14 in 10.0 mi SW 4.6 mph - N/A   Clear
7:35 AM 42.4 °F 40.7 °F 40.6 °F 93% 30.15 in 10.0 mi WSW 3.5 mph - N/A   Clear
7:55 AM 43.7 °F 42.1 °F 41.0 °F 90% 30.15 in 10.0 mi SW 3.5 mph - N/A   Clear
8:15 AM 45.0 °F 42.6 °F 41.2 °F 87% 30.15 in 10.0 mi SW 4.6 mph - N/A   Clear
8:35 AM 46.8 °F - 41.4 °F 81% 30.15 in 10.0 mi SW 5.8 mph - N/A   Clear
8:55 AM 48.4 °F - 41.4 °F 77% 30.15 in 10.0 mi SW 4.6 mph - N/A   Clear
9:15 AM 49.3 °F - 41.5 °F 75% 30.15 in 10.0 mi WSW 4.6 mph - N/A   Clear
9:35 AM 50.7 °F - 41.9 °F 72% 30.16 in 10.0 mi WSW 5.8 mph - N/A   Clear
9:55 AM 52.2 °F - 41.7 °F 68% 30.16 in 10.0 mi WSW 5.8 mph - N/A   Clear
10:15 AM 54.3 °F - 38.3 °F 55% 30.16 in 10.0 mi West 5.8 mph - N/A   Clear
10:35 AM 55.4 °F - 36.7 °F 49% 30.15 in 10.0 mi West 9.2 mph - N/A   Clear
10:55 AM 56.1 °F - 36.7 °F 48% 30.14 in 10.0 mi West 6.9 mph - N/A   Clear
11:15 AM 57.0 °F - 35.8 °F 45% 30.12 in 10.0 mi WSW 6.9 mph - N/A   Clear
11:35 AM 58.3 °F - 32.9 °F 38% 30.11 in 10.0 mi SW 8.1 mph - N/A   Clear
11:55 AM 59.9 °F - 32.4 °F 35% 30.09 in 10.0 mi West 6.9 mph - N/A   Clear
12:15 PM 60.1 °F - 30.9 °F 33% 30.08 in 10.0 mi West 4.6 mph - N/A   Clear
12:35 PM 61.0 °F - 30.9 °F 32% 30.06 in 10.0 mi SW 6.9 mph - N/A   Clear
12:55 PM 61.7 °F - 31.3 °F 32% 30.06 in 10.0 mi West 5.8 mph - N/A   Clear
1:15 PM 63.0 °F - 31.3 °F 30% 30.04 in 10.0 mi West 5.8 mph - N/A   Clear
1:35 PM 63.7 °F - 30.7 °F 29% 30.03 in 10.0 mi SSW 4.6 mph - N/A   Clear
1:55 PM 63.0 °F - 30.7 °F 30% 30.03 in 10.0 mi West 4.6 mph - N/A   Clear
2:15 PM 63.7 °F - 29.8 °F 28% 30.03 in 10.0 mi West 4.6 mph - N/A   Clear
2:35 PM 64.4 °F - 28.0 °F 25% 30.03 in 10.0 mi WSW 5.8 mph - N/A   Clear
2:55 PM 64.6 °F - 28.2 °F 25% 30.02 in 10.0 mi West 5.8 mph - N/A   Clear
3:15 PM 64.6 °F - 27.7 °F 25% 30.02 in 10.0 mi SW 3.5 mph - N/A   Clear
3:35 PM 64.8 °F - 28.2 °F 25% 30.02 in 10.0 mi SW 5.8 mph - N/A   Clear
3:55 PM 64.4 °F - 28.2 °F 26% 30.02 in 10.0 mi Calm Calm - N/A   Clear
4:15 PM 64.4 °F - 28.9 °F 26% 30.02 in 10.0 mi West 4.6 mph - N/A   Clear
4:35 PM 63.9 °F - 29.8 °F 28% 30.02 in 10.0 mi Calm Calm - N/A   Clear
4:55 PM 62.8 °F - 29.7 °F 29% 30.03 in 10.0 mi Calm Calm - N/A   Clear
5:15 PM 61.2 °F - 30.9 °F 32% 30.03 in 10.0 mi Calm Calm - N/A   Clear
5:35 PM 58.6 °F - 32.5 °F 37% 30.03 in 10.0 mi Calm Calm - N/A   Clear
5:55 PM 56.1 °F - 35.4 °F 46% 30.04 in 10.0 mi Calm Calm - N/A   Clear
6:15 PM 54.7 °F - 36.0 °F 49% 30.05 in 10.0 mi Calm Calm - N/A   Clear
6:35 PM 52.0 °F - 37.8 °F 58% 30.05 in 10.0 mi Calm Calm - N/A   Clear
6:55 PM 50.0 °F - 40.1 °F 69% 30.05 in 10.0 mi Calm Calm - N/A   Clear
7:15 PM 49.1 °F - 37.8 °F 65% 30.06 in 10.0 mi Calm Calm - N/A   Clear
7:35 PM 47.7 °F - 38.1 °F 70% 30.06 in 10.0 mi Calm Calm - N/A   Clear
7:55 PM 47.3 °F - 37.9 °F 70% 30.06 in 10.0 mi Calm Calm - N/A   Clear
8:15 PM 45.1 °F - 38.3 °F 77% 30.06 in 10.0 mi Calm Calm - N/A   Clear
8:35 PM 45.3 °F - 37.9 °F 75% 30.07 in 10.0 mi Calm Calm - N/A   Clear
8:55 PM 44.4 °F - 38.5 °F 80% 30.07 in 10.0 mi Calm Calm - N/A   Clear
9:15 PM 43.3 °F - 38.7 °F 84% 30.08 in 10.0 mi Calm Calm - N/A   Clear
9:35 PM 43.7 °F - 37.9 °F 80% 30.08 in 10.0 mi Calm Calm - N/A   Clear
9:55 PM 43.0 °F - 37.8 °F 82% 30.08 in 10.0 mi Calm Calm - N/A   Clear
10:15 PM 42.8 °F - 37.6 °F 82% 30.08 in 10.0 mi Calm Calm - N/A   Clear
10:35 PM 42.1 °F - 36.9 °F 82% 30.09 in 10.0 mi Calm Calm - N/A   Clear
10:55 PM 41.9 °F - 37.0 °F 83% 30.09 in 10.0 mi Calm Calm - N/A   Clear
11:15 PM 41.2 °F - 36.9 °F 85% 30.09 in 10.0 mi Calm Calm - N/A   Clear
11:35 PM 40.6 °F - 36.1 °F 84% 30.08 in 10.0 mi Calm Calm - N/A   Clear
11:55 PM 40.3 °F - 36.9 °F 88% 30.08 in 10.0 mi Calm Calm - N/A   Clear